Wind_Speed
12 12 12 12 14 15 17 19 19 19 19 19 18 18 17 15 13 11 9 7 6 4 3 2 1 1 3 6 10 14 17 19 20 18 17 16 15 14 12 11 9 9 9
10 10 10 10 11 13 15 17 18 18 18 19 19 18 18 17 15 13 11 9 8 6 5 4 3 1 1 3 6 9 13 16 17 17 17 18 17 17 15 14 13 12 12
8 8 8 9 9 11 13 15 16 16 17 17 18 18 18 18 17 16 14 12 10 9 8 6 4 3 2 2 4 6 8 10 12 13 15 18 18 17 17 16 15 14 13
7 6 6 7 7 8 10 11 13 14 15 15 16 16 17 17 17 17 16 15 13 11 10 8 7 5 3 2 3 3 3 5 6 8 11 14 15 16 17 17 16 15 13
5 5 4 4 5 6 7 8 10 11 12 13 13 14 15 16 16 16 17 16 16 14 12 10 9 7 4 3 3 3 3 2 3 4 7 9 11 12 14 15 15 14 13
4 4 3 2 2 3 4 5 6 8 9 10 10 11 11 13 14 14 15 16 16 16 14 12 10 9 7 5 4 4 4 3 2 1 3 5 6 7 8 9 11 11 11
4 3 2 2 1 1 0 1 2 4 5 7 7 8 8 9 10 11 12 14 14 15 14 14 12 11 9 8 7 6 6 5 3 2 1 1 1 2 1 2 4 6 7
4 3 3 2 2 3 2 3 3 3 4 5 5 6 6 6 6 8 9 10 11 12 13 13 12 12 11 9 8 8 7 6 5 4 3 3 2 2 2 1 1 2 3
4 4 4 4 4 4 5 5 5 5 5 5 5 5 5 5 5 5 6 7 8 8 9 10 11 11 10 9 8 8 7 6 5 4 4 4 3 3 2 3 2 1 1
4 5 5 6 6 6 7 7 7 7 7 7 7 7 6 6 5 5 4 5 5 5 6 6 7 8 8 7 7 7 6 5 4 4 4 3 3 2 2 2 2 2 1
5 5 6 6 7 8 8 9 9 9 9 9 9 9 8 8 7 6 5 5 5 5 4 4 4 4 4 5 5 5 5 4 4 3 3 2 2 2 2 2 2 2 2
7 7 7 7 8 9 9 10 10 11 11 11 11 11 10 10 10 10 9 8 7 7 6 6 4 4 4 4 4 4 3 3 3 3 3 2 2 1 1 1 1 1 1
12 11 11 10 10 11 11 11 11 12 12 12 12 13 13 13 13 13 13 12 11 10 9 8 7 6 6 6 6 5 4 3 3 3 3 3 3 3 3 3 3 3 3
17 16 16 15 14 14 14 13 13 13 13 13 14 14 15 15 15 15 16 15 14 13 12 11 10 9 9 9 9 8 7 6 6 5 5 5 6 6 5 5 6 6 6
21 20 20 19 19 18 17 16 16 16 15 15 15 16 16 16 16 17 18 18 18 17 16 15 14 13 13 12 13 12 10 9 8 8 8 7 7 8 8 7 7 8 8
25 25 24 23 23 23 22 21 20 19 18 18 17 17 17 18 18 19 19 20 20 20 19 19 19 17 16 16 16 15 14 12 11 10 10 10 10 10 9 9 9 9 9
30 30 29 28 27 26 25 25 25 24 23 21 20 20 20 20 20 21 21 22 22 22 22 22 22 21 20 20 19 19 17 16 14 13 12 12 12 12 12 12 11 10 10
36 35 34 34 33 31 29 28 27 27 26 26 24 23 23 22 23 24 24 25 25 25 25 25 25 24 23 22 22 21 20 19 18 17 15 14 14 14 14 14 13 12 12
41 40 39 39 38 37 35 34 32 30 29 28 28 26 26 25 26 27 28 28 28 28 28 28 27 26 25 23 23 22 21 20 20 19 19 17 16 16 16 16 15 14 13
45 45 44 43 42 41 40 39 37 35 34 31 30 28 29 29 29 30 30 31 31 31 30 30 30 29 28 26 24 23 22 22 22 22 22 21 19 18 18 17 16 16 15
49 49 48 47 47 46 44 43 41 39 38 37 35 34 33 32 32 33 33 33 33 34 33 32 31 31 30 29 27 26 25 24 25 25 25 24 22 20 19 19 18 17 17
51 51 52 51 49 48 47 46 45 43 41 40 39 38 37 36 35 35 35 36 35 35 35 34 33 32 32 31 29 28 28 27 26 26 26 26 25 23 21 20 19 19 19
50 51 51 51 51 50 49 47 46 44 43 42 42 42 41 40 39 38 36 35 35 34 34 34 35 34 32 32 32 31 30 30 29 26 26 26 26 24 23 22 21 21 21
47 49 49 49 49 49 48 47 46 44 43 43 43 43 43 43 42 40 39 37 36 34 32 33 33 33 34 33 33 33 32 31 29 27 27 26 27 26 25 24 23 23 22
41 42 43 44 44 44 45 45 44 43 42 42 42 42 42 42 42 41 39 37 34 32 29 29 29 29 30 33 34 34 33 33 31 30 29 28 28 28 27 27 26 25 25
30 31 33 35 37 39 40 41 42 41 40 39 39 39 39 39 39 38 35 33 31 28 27 27 27 27 28 31 32 33 33 32 32 31 30 29 29 29 29 29 29 28 27
Wind_Direction
90 88 85 85 85 84 82 81 79 76 73 69 67 65 64 62 62 62 63 62 56 50 42 38 35 202 215 223 225 226 228 228 227 228 227 230 234 239 247 254 261 272 285
93 90 86 85 86 85 83 82 80 76 73 69 66 64 63 61 58 55 55 54 52 48 45 44 53 69 172 203 214 225 229 230 228 234 235 235 240 242 247 251 258 266 275
98 93 87 85 85 85 83 82 79 76 72 68 64 61 60 60 57 54 51 49 46 42 39 38 41 54 85 150 194 212 226 230 229 233 236 238 242 243 247 251 257 263 268
105 101 94 88 88 87 84 80 77 74 70 66 61 56 55 55 54 52 49 46 44 41 38 36 38 48 69 111 156 180 200 214 222 233 238 241 244 248 252 252 254 258 262
113 112 109 99 93 91 86 77 73 71 67 62 58 52 50 49 48 47 46 45 44 42 41 41 43 51 66 99 124 133 148 165 203 230 241 248 253 257 258 255 252 253 257
124 125 131 133 114 98 88 77 67 59 54 51 49 45 41 41 41 41 41 42 43 45 45 46 49 54 66 85 97 107 116 121 137 225 262 265 265 267 269 256 246 247 251
149 146 156 176 195 209 44 35 34 28 25 26 28 29 28 26 29 33 35 37 41 45 46 47 51 56 63 74 84 90 94 97 95 80 38 335 269 258 265 243 236 238 245
174 172 180 200 220 238 258 273 286 305 327 339 349 359 7 8 10 17 22 27 34 41 46 47 51 57 62 68 76 85 93 96 95 90 80 76 95 98 88 100 162 213 234
198 195 200 211 225 236 245 255 266 273 282 293 306 318 331 340 347 357 5 12 20 29 38 44 48 52 58 62 66 76 87 92 93 89 91 92 92 90 87 84 89 106 160
221 217 216 220 227 232 236 244 254 264 271 277 283 289 297 308 318 331 344 352 356 4 17 29 38 44 48 51 55 62 71 78 84 83 82 84 87 94 92 82 79 80 80
245 238 234 235 238 240 240 241 245 253 261 268 273 277 281 287 293 300 309 318 326 327 330 342 1 14 20 24 30 42 51 52 55 54 51 50 56 79 87 79 75 70 67
260 257 253 251 250 249 248 248 249 251 256 262 267 271 274 277 281 285 290 295 300 305 304 300 302 314 319 321 333 353 17 26 18 12 8 3 347 339 341 347 1 1 358
266 263 262 260 259 257 254 253 253 254 256 260 266 270 271 272 274 277 279 283 286 288 290 289 285 286 290 291 294 303 313 312 311 317 322 323 317 310 302 296 293 292 298
269 265 262 261 260 257 255 253 254 255 257 260 264 269 273 273 273 274 275 275 276 277 278 279 279 279 280 279 278 279 287 295 292 290 295 300 301 298 293 288 284 284 289
264 263 261 258 256 253 250 248 249 252 254 257 261 266 270 274 275 275 275 274 273 272 271 272 273 275 277 278 276 274 275 282 284 285 286 288 292 293 289 285 283 281 284
256 255 254 253 252 249 245 244 244 245 248 252 256 261 265 270 273 275 275 275 274 273 271 269 269 271 274 277 277 275 273 273 274 277 282 284 287 292 292 287 283 280 280
255 253 250 250 250 252 249 246 243 242 243 246 252 257 262 265 268 271 273 274 274 274 273 271 270 270 271 273 274 274 272 270 267 270 276 281 285 287 290 290 285 281 281
257 254 251 250 250 250 250 248 247 245 245 245 247 252 257 262 266 268 270 272 273 274 274 273 272 271 271 271 272 272 271 269 268 268 271 276 281 282 283 286 284 279 280
258 255 253 251 251 251 250 250 250 249 250 249 248 250 255 260 265 267 268 269 270 271 271 271 271 271 271 270 271 271 271 270 269 268 269 271 274 276 277 279 279 276 278
259 256 254 253 252 251 250 250 251 251 252 254 254 255 256 259 263 266 269 270 270 270 270 270 270 270 270 268 268 269 270 270 269 268 267 266 266 269 271 272 274 274 277
262 259 256 254 252 250 250 251 251 252 254 255 257 257 258 260 263 265 267 269 271 270 270 269 268 267 266 266 265 266 266 266 267 267 266 263 260 263 265 266 269 271 274
265 263 260 256 253 250 249 249 250 251 253 254 257 259 259 260 263 265 267 267 269 269 268 266 264 263 263 263 263 264 264 263 264 265 266 263 260 259 259 261 264 267 271
266 263 262 258 254 251 250 249 249 250 251 252 253 255 257 258 260 262 265 266 267 268 266 264 261 257 259 259 261 262 262 262 264 265 264 262 260 257 256 257 260 264 268
269 265 263 261 259 256 253 251 250 250 250 251 252 253 255 257 258 261 263 266 266 270 267 264 261 257 255 255 257 259 259 261 262 262 262 260 259 256 254 255 257 260 265
273 268 265 261 260 258 256 254 253 253 252 252 253 254 255 257 259 261 262 265 266 270 272 267 263 261 259 255 253 254 255 256 258 259 260 260 258 255 252 253 255 258 263
278 269 263 259 257 256 255 254 253 253 254 254 254 255 255 257 257 259 260 263 267 274 276 277 275 273 267 257 253 252 249 252 253 255 258 259 256 253 250 251 253 257 262
Height
5911 5911 5911 5911 5910 5909 5908 5907 5906 5905 5905 5905 5905 5904 5904 5904 5903 5903 5902 5902 5902 5902 5901 5901 5901 5901 5902 5903 5905 5906 5908 5909 5912 5914 5915 5917 5919 5920 5921 5922 5922 5922 5922
5913 5913 5913 5913 5912 5911 5910 5909 5909 5908 5908 5908 5907 5907 5906 5906 5905 5905 5904 5904 5903 5903 5902 5902 5902 5902 5903 5903 5904 5905 5906 5908 5910 5912 5914 5915 5917 5918 5919 5920 5920 5921 5921
5914 5914 5914 5915 5914 5914 5913 5912 5912 5911 5911 5910 5910 5909 5909 5908 5907 5907 5906 5905 5905 5904 5903 5903 5902 5903 5903 5903 5904 5904 5905 5907 5909 5911 5912 5913 5915 5916 5917 5918 5918 5919 5919
5915 5915 5916 5916 5916 5916 5915 5915 5914 5914 5913 5913 5912 5912 5911 5910 5909 5909 5908 5907 5906 5905 5905 5904 5903 5903 5903 5903 5904 5904 5905 5907 5908 5910 5911 5912 5913 5914 5915 5915 5916 5917 5917
5916 5916 5917 5917 5917 5917 5917 5916 5916 5916 5916 5915 5915 5914 5913 5913 5912 5911 5910 5909 5908 5907 5906 5905 5904 5904 5904 5904 5904 5905 5906 5907 5908 5909 5910 5911 5912 5912 5913 5913 5914 5915 5916
5917 5917 5917 5917 5917 5917 5918 5917 5917 5917 5917 5917 5916 5916 5916 5915 5914 5914 5913 5912 5910 5909 5908 5907 5906 5906 5905 5905 5906 5906 5907 5908 5909 5910 5910 5911 5911 5911 5911 5911 5912 5913 5914
5917 5917 5917 5918 5918 5918 5918 5918 5918 5918 5918 5917 5917 5917 5917 5917 5916 5916 5915 5914 5913 5912 5911 5910 5909 5908 5907 5907 5907 5908 5908 5909 5910 5911 5911 5911 5911 5911 5911 5911 5911 5912 5913
5916 5917 5917 5917 5918 5918 5918 5918 5917 5918 5918 5918 5918 5917 5917 5917 5917 5917 5917 5916 5915 5914 5913 5912 5912 5911 5910 5909 5909 5909 5910 5910 5911 5911 5911 5911 5911 5911 5911 5911 5912 5912 5913
5916 5916 5916 5916 5916 5917 5917 5917 5917 5917 5917 5917 5917 5917 5917 5917 5917 5917 5917 5917 5916 5916 5915 5915 5914 5913 5912 5912 5911 5911 5911 5912 5912 5912 5912 5912 5912 5912 5912 5912 5912 5912 5913
5915 5915 5915 5915 5915 5915 5915 5915 5915 5915 5915 5915 5916 5916 5916 5916 5916 5916 5916 5916 5916 5916 5916 5916 5916 5915 5915 5914 5913 5913 5913 5913 5913 5913 5913 5913 5913 5913 5913 5913 5913 5913 5913
5914 5914 5913 5913 5913 5912 5912 5912 5913 5913 5913 5913 5913 5914 5914 5914 5914 5915 5915 5915 5915 5916 5916 5916 5916 5916 5916 5915 5915 5914 5914 5914 5914 5913 5913 5913 5913 5913 5913 5913 5913 5913 5913
5913 5912 5912 5911 5911 5910 5910 5910 5910 5910 5911 5911 5911 5911 5912 5912 5912 5913 5913 5913 5914 5914 5914 5915 5915 5915 5915 5915 5915 5915 5915 5914 5914 5914 5914 5914 5913 5913 5913 5913 5913 5913 5913
5910 5910 5909 5909 5909 5908 5908 5908 5908 5908 5908 5908 5908 5908 5909 5909 5909 5910 5910 5911 5911 5912 5912 5912 5913 5913 5913 5914 5914 5914 5914 5914 5914 5914 5914 5914 5913 5913 5913 5912 5912 5912 5912
5906 5906 5905 5905 5905 5905 5905 5905 5905 5905 5905 5905 5905 5905 5905 5906 5906 5906 5907 5907 5908 5908 5909 5909 5910 5910 5910 5911 5911 5912 5912 5913 5913 5913 5913 5913 5912 5912 5912 5912 5911 5911 5911
5901 5901 5901 5900 5900 5901 5901 5901 5901 5901 5901 5901 5901 5901 5901 5902 5902 5903 5903 5903 5904 5904 5905 5906 5906 5907 5907 5907 5908 5909 5909 5910 5910 5910 5911 5911 5911 5910 5910 5910 5910 5909 5909
5896 5896 5895 5895 5894 5894 5895 5895 5896 5896 5897 5897 5897 5897 5897 5897 5898 5898 5899 5899 5899 5900 5900 5901 5902 5903 5903 5904 5904 5905 5905 5906 5907 5907 5908 5908 5908 5908 5908 5907 5907 5907 5906
5891 5890 5889 5889 5888 5888 5888 5889 5889 5890 5891 5891 5892 5892 5892 5893 5893 5893 5894 5894 5895 5895 5895 5896 5896 5898 5899 5899 5900 5900 5901 5902 5902 5903 5904 5904 5904 5904 5904 5904 5904 5904 5903
5883 5883 5883 5882 5882 5882 5882 5882 5882 5882 5883 5884 5885 5886 5887 5887 5888 5888 5888 5889 5889 5890 5890 5891 5891 5892 5893 5894 5895 5895 5896 5897 5898 5898 5899 5899 5900 5901 5901 5901 5900 5900 5900
5873 5873 5873 5874 5874 5874 5874 5875 5875 5875 5876 5877 5878 5880 5881 5882 5882 5882 5882 5883 5883 5884 5885 5885 5885 5886 5887 5888 5889 5889 5890 5891 5892 5893 5894 5894 5895 5896 5896 5896 5896 5896 5896
5860 5861 5861 5863 5864 5865 5865 5866 5867 5869 5870 5870 5871 5873 5874 5875 5876 5876 5876 5876 5877 5877 5878 5879 5879 5880 5881 5882 5883 5883 5884 5885 5886 5887 5888 5889 5890 5891 5891 5892 5892 5892 5892
5846 5847 5848 5850 5852 5854 5855 5857 5859 5861 5862 5864 5865 5866 5867 5868 5869 5869 5870 5870 5870 5870 5871 5872 5872 5873 5874 5875 5877 5878 5878 5879 5880 5881 5882 5883 5884 5885 5886 5886 5887 5887 5887
5831 5832 5833 5836 5838 5841 5844 5846 5849 5851 5854 5856 5857 5858 5859 5860 5861 5862 5862 5862 5863 5863 5863 5863 5864 5865 5866 5868 5870 5871 5872 5874 5874 5875 5876 5876 5877 5878 5880 5881 5881 5882 5882
5817 5817 5818 5821 5824 5828 5831 5835 5838 5841 5844 5847 5848 5850 5851 5852 5853 5854 5855 5855 5855 5855 5855 5855 5856 5857 5859 5860 5862 5864 5865 5866 5867 5869 5869 5870 5870 5872 5873 5874 5875 5876 5877
5803 5803 5804 5807 5811 5815 5819 5823 5827 5831 5834 5837 5839 5840 5842 5843 5845 5846 5847 5848 5848 5848 5848 5848 5849 5850 5851 5852 5854 5856 5857 5858 5859 5861 5862 5863 5864 5865 5866 5868 5869 5870 5871
5790 5790 5792 5795 5799 5803 5808 5812 5816 5820 5824 5827 5829 5831 5833 5834 5836 5838 5839 5840 5841 5840 5840 5840 5841 5842 5842 5844 5846 5847 5849 5850 5851 5853 5855 5856 5857 5858 5860 5861 5862 5863 5864
5780 5779 5781 5784 5788 5792 5796 5801 5806 5810 5813 5817 5819 5822 5824 5826 5828 5829 5830 5832 5833 5833 5833 5834 5834 5834 5834 5835 5837 5838 5840 5842 5844 5845 5847 5848 5850 5852 5853 5854 5855 5856 5857